Location: Unspecified
(0.0000°N, 0.0000°E)
Time: 18:28:22
(UTC+00:00)

Hubble Space Telescope - Pass Details

Date: 12 November 2025
Orbit: 482 x 485 km, 28.5° (Epoch: 06 November)

Event Time Altitude Azimuth Distance (km) Brightness Sun altitude
Exits shadow 03:41:04 25° 121° (ESE) 1,006 2.8 -29.2°
Drops below altitude 10° 03:43:21 10° 89° (E) 1,648 4.1 -28.6°
Sets 03:45:44 0° 77° (ENE) 2,525 5.0 -28.1°
